Location: N�rnberg
(49.4489°N, 11.0797°E)
Time: 21:36:58
(UTC+01:00)

ISS - Pass Details

Date: 12 November 2017
Orbit: 401 x 407 km, 51.6° (Epoch: 25 November)

Event Time Altitude Azimuth Distance (km) Brightness Sun altitude
Exits shadow 04:20:17 15° 78° (ENE) 1,201 -0.6 -29.5°
Drops below altitude 10° 04:20:56 10° 81° (E) 1,457 -0.1 -29.4°
Sets 04:23:02 0° 86° (E) 2,316 1.2 -29.0°
